Location: Tauranga
(37.6860°S, 176.1670°E)
Time: 10:12:21
(UTC+12:00)

Cosmos 1633 - Pass Details

Date: 24 January 2019
Orbit: 467 x 483 km, 82.5° (Epoch: 18 April)

Event Time Altitude Azimuth Distance (km) Brightness Sun altitude
Rises 23:15:03 0° 201° (SSW) 2,548 7.5 -25.1°
Reaches altitude 10° 23:17:23 10° 213° (SSW) 1,662 6.3 -25.4°
Enters shadow 23:20:22 26° 269° (W) 980 4.4 -25.7°
